Weather History for Sarasota, FL

Change the Weather History Date:

Friday, January 5, 2007

  Actual Average Record
Temperature  
Mean Temperature 76 °F 61 °F  
Max Temperature 84 °F 71 °F 84 °F (1966)
Min Temperature 68 °F 52 °F 28 °F (1918)
Degree Days  
Heating Degree Days 0 6  
Month to date heating degree days 0 28  
Since 1 July heating degree days 93 183  
Cooling Degree Days 11 2  
Month to date cooling degree days 36 10  
Year to date cooling degree days 36 10  
Growing Degree Days 25 (Base 50)    
Moisture  
Dew Point 68 °F    
Average Humidity 83    
Maximum Humidity 90    
Minimum Humidity 58    
Precipitation  
Precipitation 0.00 in 0.12 in 1.60 in (1940)
Month to date precipitation 0.49 0.61  
Year to date precipitation 0.49 0.61  
Sea Level Pressure  
Sea Level Pressure 30.02 in    
Wind  
Wind Speed 12 mph (SSE)    
Max Wind Speed 24 mph    
Max Gust Speed 28 mph    
Visibility 10 miles    
Events      
T = Trace of Precipitation, MM = Missing Value Source: NWS Daily Summary

Daily Weather History Graph

Daily Weather History Graph

Search for Another Location

Airport:

Trip Planner

Search our weather history database for the weather conditions in past years. The results will help you decide how hot, cold, wet, or windy it might be!

Date:

Astronomy

Jan. 05, 2007 Rise Set
Actual Time 7:21 AM EST 5:50 PM EST
Civil Twilight 6:55 AM EST 6:15 PM EST
Nautical Twilight 6:26 AM EST 6:44 PM EST
Astronomical Twilight 5:58 AM EST 7:12 PM EST
Moon 8:01 PM EST (1/5) 9:06 AM EST (1/5)
Length of Visible Light 11h 19m
Length of Day
10h 28m
Waning Gibbous, 95% of the Moon is Illuminated
Jan 5
Waning Gibbous
Jan 11
Last Quarter
Jan 18
New
Jan 25
First Quarter
Feb 2
Full

Hourly Weather History & Observations

Time (EST) Temp. Heat Index Dew Point Humidity Pressure Visibility Wind Dir Wind Speed Gust Speed Precip Events Conditions
12:53 AM 69.1 °F - 64.9 °F 87% 30.05 in 10.0 mi SE 8.1 mph - N/A   Clear
1:53 AM 68.0 °F - 64.9 °F 90% 30.04 in 10.0 mi SE 8.1 mph - N/A   Clear
2:53 AM 68.0 °F - 64.9 °F 90% 30.03 in 10.0 mi SE 8.1 mph - N/A   Clear
3:53 AM 68.0 °F - 64.9 °F 90% 30.03 in 10.0 mi SE 9.2 mph - N/A   Scattered Clouds
4:53 AM 69.1 °F - 66.0 °F 90% 30.03 in 10.0 mi SE 9.2 mph - N/A   Mostly Cloudy
5:53 AM 69.1 °F - 66.0 °F 90% 30.03 in 10.0 mi SE 9.2 mph - N/A   Scattered Clouds
6:53 AM 69.1 °F - 66.0 °F 90% 30.04 in 10.0 mi ESE 8.1 mph - N/A   Overcast
7:53 AM 69.1 °F - 66.0 °F 90% 30.04 in 10.0 mi SE 6.9 mph - N/A   Overcast
8:53 AM 70.0 °F - 66.9 °F 90% 30.08 in 10.0 mi ESE 6.9 mph - N/A   Overcast
9:53 AM 72.0 °F - 68.0 °F 87% 30.06 in 10.0 mi SE 13.8 mph - N/A   Mostly Cloudy
10:53 AM 75.0 °F - 69.1 °F 82% 30.03 in 10.0 mi SE 13.8 mph 23.0 mph N/A   Clear
11:53 AM 78.1 °F - 69.1 °F 74% 29.98 in 10.0 mi SSE 16.1 mph 24.2 mph N/A   Clear
12:53 PM 82.0 °F 84.5 °F 66.9 °F 60% 29.95 in 10.0 mi South 23.0 mph - N/A   Scattered Clouds
1:53 PM 80.1 °F 82.3 °F 66.9 °F 64% 29.96 in 10.0 mi South 15.0 mph 23.0 mph N/A   Clear
2:53 PM 77.0 °F - 69.1 °F 76% 29.98 in 10.0 mi South 15.0 mph - N/A   Clear
3:53 PM 75.9 °F - 69.1 °F 79% 29.97 in 10.0 mi South 16.1 mph - N/A   Mostly Cloudy
4:53 PM 75.9 °F - 69.1 °F 79% 29.98 in 10.0 mi South 15.0 mph - N/A   Clear
5:53 PM 73.9 °F - 68.0 °F 82% 30.00 in 10.0 mi South 13.8 mph - N/A   Clear
6:53 PM 73.0 °F - 68.0 °F 84% 30.02 in 10.0 mi South 12.7 mph - N/A   Scattered Clouds
7:53 PM 73.9 °F - 69.1 °F 85% 30.04 in 10.0 mi South 11.5 mph - N/A   Partly Cloudy
8:53 PM 75.0 °F - 70.0 °F 84% 30.04 in 10.0 mi South 13.8 mph - N/A   Partly Cloudy
9:53 PM 73.9 °F - 70.0 °F 87% 30.05 in 10.0 mi South 10.4 mph - N/A   Partly Cloudy
10:53 PM 73.9 °F - 70.0 °F 87% 30.05 in 10.0 mi South 9.2 mph - N/A   Partly Cloudy
11:53 PM 73.9 °F - 70.0 °F 87% 30.05 in 10.0 mi South 11.5 mph - N/A   Mostly Cloudy